User: anonymous   Login
Location: Unspecified
(0.0000°N, 0.0000°E)
Time: 20:46:08
(UTC+02:00)
Language:

Cosmos 2251 - Orbit

View from above orbital plane
View from above orbital plane
View from above satellite
View from above satellite

Ground track
Ground track

The orbit data is extracted from the following two-line orbital elements,

1 22675U 93036A   17206.20796542 -.00000008 +00000-0 +66017-5 0  9998
2 22675 074.0394 146.7150 0026207 256.9138 102.9087 14.32502298259184
Epoch (UTC): 25 July 2017 04:59:28
Eccentricity: 0.0026207
inclination: 74.0394°
perigee height: 764 km
apogee height: 802 km
right ascension of ascending node: 146.7150°
argument of perigee: 256.9138°
revolutions per day: 14.32502298
mean anomaly at epoch: 102.9087°
orbit number at epoch: 25918

The dashed part of the orbit path shows where the satellite is in the earth's shadow,  

DLR